SCP
0 0 0 0 0 0 -0 0 0 1 0 0 0 0 0 0 0 0 0 0 -0 0 0 0 0 0 0 0 0 0 0 0
0 0 0 0 0 0 0 0 0 0 0 0 0 0 0 0 0 0 0 0 0 0 0 0 0 1 1 1 1 0 0 0
0 0 0 0 0 0 0 0 0 0 0 0 0 0 0 0 0 0 0 0 0 0 0 0 0 0 0 1 1 1 0 0
0 -0 0 0 0 0 0 0 0 0 0 0 0 0 0 0 0 0 0 0 0 0 0 0 0 0 -0 0 0 1 1 0
0 0 0 0 0 0 0 0 0 0 0 0 0 0 0 0 0 0 0 0 0 0 0 0 0 0 0 0 0 0 2 1
0 0 0 0 0 0 0 0 0 0 0 0 0 0 0 0 0 0 0 0 0 0 0 0 0 0 0 0 0 0 0 0
-0 0 0 0 0 0 0 0 0 -0 -0 0 0 0 0 0 0 0 0 0 0 0 0 0 0 0 0 0 0 0 0 0
0 0 0 0 0 0 0 0 0 -0 -0 0 0 0 0 0 0 0 0 0 0 0 0 0 0 0 0 0 0 0 0 0
0 0 0 0 0 0 0 0 0 -0 -0 0 0 0 0 0 0 0 0 0 0 0 0 0 0 0 0 0 0 0 0 0
0 0 0 0 0 0 0 0 0 0 0 0 0 0 0 0 0 0 0 0 0 0 0 0 0 0 0 0 0 0 0 0
0 0 0 0 0 0 0 0 0 0 0 0 0 0 0 0 0 0 0 0 0 0 0 0 0 0 0 0 0 0 0 0
0 0 0 0 0 0 0 0 0 0 0 0 0 0 0 0 0 0 0 0 0 0 0 0 0 0 0 0 0 0 0 0
0 0 0 0 0 0 0 0 0 0 0 0 0 0 0 0 0 0 0 0 0 0 0 0 0 0 0 0 0 0 0 0
0 0 0 0 0 0 0 0 0 0 0 0 0 0 0 0 0 0 0 0 0 0 0 0 0 0 0 0 0 0 0 0
0 0 0 0 0 0 0 0 0 0 0 0 0 0 0 0 0 0 0 0 0 0 0 0 0 0 0 0 0 0 0 0
0 0 0 0 0 0 0 0 0 0 0 0 0 0 0 0 0 0 0 0 0 0 0 0 0 0 0 0 0 0 0 0
0 0 0 0 0 0 0 0 0 0 0 0 0 0 0 0 0 0 0 0 0 0 0 0 0 0 0 0 0 0 0 0
0 0 0 0 0 0 0 0 0 0 0 0 0 0 0 0 0 0 0 0 0 0 0 0 0 0 0 0 0 0 0 0
0 0 0 0 0 0 0 0 0 0 0 0 0 0 0 0 0 0 0 0 0 0 0 0 0 0 0 0 0 0 0 0
Wind_Speed_500mb
13 32 2 32 35 37 30 39 26 18 29 25 37 32 30 15 16 18 17 16 34 50 47 67 40 50 68 47 42 44 43 39
20 11 19 29 18 33 27 29 29 22 27 26 32 28 25 25 24 23 26 34 22 23 25 34 52 44 30 52 45 44 45 42
29 23 30 22 22 24 33 30 19 22 9 12 34 26 27 28 21 19 23 28 31 35 22 27 51 47 24 29 54 46 47 46
26 26 38 31 26 33 24 33 19 14 5 11 23 32 33 30 24 19 20 22 30 39 31 38 46 75 72 7 26 53 45 47
16 14 15 17 26 30 25 31 29 11 12 14 33 32 29 32 28 28 24 25 30 37 43 34 36 45 38 26 56 20 35 42
10 25 17 33 31 25 27 21 26 15 38 29 29 26 28 32 30 31 32 31 33 39 42 45 43 30 25 25 31 28 23 19
9 14 22 27 41 34 19 30 22 33 38 29 25 26 31 32 32 32 33 33 36 37 40 41 47 45 34 13 10 24 34 23
21 12 11 19 12 6 10 23 29 35 37 35 44 40 39 33 33 31 30 29 31 35 39 41 42 41 35 32 22 5 16 16
21 26 24 20 20 19 16 21 7 29 30 38 34 39 34 30 30 29 27 26 25 27 30 32 31 28 33 33 35 30 23 12
19 19 28 14 14 18 24 21 8 25 44 43 45 46 43 37 30 27 23 22 20 21 21 22 23 25 27 24 29 33 32 28
19 22 24 17 6 8 13 15 34 39 37 41 42 44 34 30 28 23 19 16 15 14 15 16 21 21 22 23 24 20 19 20
14 21 24 25 21 5 1 10 20 43 41 44 37 18 22 29 25 21 17 13 12 11 11 13 18 19 19 20 20 17 18 19
16 12 8 18 22 7 8 5 35 40 51 58 26 22 46 36 24 18 14 12 12 12 11 14 16 16 16 15 13 15 18 18
13 18 12 14 8 9 9 11 19 10 52 51 41 41 36 25 19 13 9 8 8 8 9 12 14 14 15 15 22 26 28 28
12 7 10 11 18 12 9 15 19 17 22 32 28 27 24 19 12 8 5 3 5 6 9 9 14 15 18 23 27 29 32 35
8 18 16 11 9 7 8 20 14 16 14 14 18 17 15 12 11 7 2 1 4 8 10 13 16 16 17 24 27 29 31 31
15 25 6 4 7 12 14 15 23 18 21 21 19 20 18 16 11 8 4 2 3 7 9 13 17 21 23 28 31 33 33 34
12 10 14 17 16 21 18 19 20 22 21 22 21 21 20 17 13 9 7 4 6 8 12 16 19 21 22 30 27 31 34 33
18 10 14 17 17 28 32 29 26 23 25 26 22 21 20 17 13 11 9 6 9 12 17 19 21 23 23 29 28 33 32 34
Wind_Direction_500mb
180 231 281 190 233 249 231 222 226 113 99 128 126 114 123 106 65 42 3 219 213 211 189 197 211 183 190 199 206 208 205 208
171 276 278 271 257 241 253 271 253 138 155 150 139 124 101 69 54 28 21 13 61 91 148 192 208 182 201 200 214 218 210 208
191 206 231 223 252 257 265 256 238 169 96 90 131 119 103 89 66 39 28 23 42 52 89 202 194 207 287 168 209 212 210 216
212 210 219 256 251 233 245 251 273 91 78 64 109 111 103 99 86 65 47 34 48 61 77 104 167 192 232 126 339 188 209 212
142 185 235 242 243 271 269 262 273 178 137 136 107 104 112 108 96 81 68 57 58 65 71 78 116 172 195 242 274 175 192 217
351 331 303 212 240 242 265 276 276 68 137 141 129 121 125 113 104 93 80 69 64 67 70 75 74 96 174 195 250 200 221 225
213 264 319 325 210 234 246 274 336 137 143 143 141 149 135 122 112 100 88 75 68 64 64 60 60 67 68 91 187 207 217 201
299 268 267 313 355 17 245 262 113 119 136 140 139 137 142 136 124 111 99 87 77 69 61 59 58 45 52 54 45 17 242 222
266 278 266 245 250 254 232 262 160 150 154 145 145 143 141 134 126 114 106 94 83 74 68 66 63 69 49 37 45 44 43 27
274 275 253 260 346 289 267 229 119 91 150 159 155 146 148 147 136 122 114 100 85 72 66 62 57 55 66 62 45 32 32 35
245 235 252 211 210 261 275 181 109 127 147 156 149 136 123 132 134 129 120 109 86 67 55 49 44 31 51 39 52 38 31 32
268 254 268 31 82 30 270 239 135 134 134 135 137 160 162 154 143 132 117 107 82 62 57 40 24 15 25 23 28 17 6 1
247 267 101 98 83 15 189 344 169 154 160 164 149 96 126 135 129 129 120 103 88 70 53 29 9 0 6 357 354 318 319 320
249 257 250 92 87 321 56 72 60 93 119 100 116 121 121 132 134 133 114 97 71 61 35 14 3 357 355 337 302 304 306 306
16 50 64 79 68 88 91 102 88 97 90 117 130 132 137 146 146 143 128 66 36 27 10 3 349 345 341 330 329 320 315 309
332 150 168 140 101 139 136 140 131 139 145 148 151 153 161 172 171 170 172 23 352 349 342 338 332 329 312 294 294 300 305 308
258 288 278 189 255 203 191 175 175 179 179 184 190 185 191 190 192 200 203 267 328 327 323 324 321 316 318 313 308 307 305 306
260 343 341 286 213 197 206 202 191 192 200 199 197 199 192 197 199 209 207 262 309 308 308 308 309 317 314 308 319 308 307 312
291 329 310 269 302 207 199 206 210 213 212 206 208 212 202 202 205 204 267 250 298 305 312 317 316 313 316 308 325 316 310 309
Wind_Speed_850mb
13 32 2 32 35 37 30 39 26 18 29 25 37 32 30 15 16 18 17 16 34 50 47 67 40 50 68 47 42 44 43 39
20 11 19 29 18 33 27 29 29 22 27 26 32 28 25 25 24 23 26 34 22 23 25 34 52 44 30 52 45 44 45 42
29 23 30 22 22 24 33 30 19 22 9 12 34 26 27 28 21 19 23 28 31 35 22 27 51 47 24 29 54 46 47 46
26 26 38 31 26 33 24 33 19 14 5 11 23 32 33 30 24 19 20 22 30 39 31 38 46 75 72 7 26 53 45 47
16 14 15 17 26 30 25 31 29 11 12 14 33 32 29 32 28 28 24 25 30 37 43 34 36 45 38 26 56 20 35 42
10 25 17 33 31 25 27 21 26 15 38 29 29 26 28 32 30 31 32 31 33 39 42 45 43 30 25 25 31 28 23 19
9 14 22 27 41 34 19 30 22 33 38 29 25 26 31 32 32 32 33 33 36 37 40 41 47 45 34 13 10 24 34 23
21 12 11 19 12 6 10 23 29 35 37 35 44 40 39 33 33 31 30 29 31 35 39 41 42 41 35 32 22 5 16 16
21 26 24 20 20 19 16 21 7 29 30 38 34 39 34 30 30 29 27 26 25 27 30 32 31 28 33 33 35 30 23 12
19 19 28 14 14 18 24 21 8 25 44 43 45 46 43 37 30 27 23 22 20 21 21 22 23 25 27 24 29 33 32 28
19 22 24 17 6 8 13 15 34 39 37 41 42 44 34 30 28 23 19 16 15 14 15 16 21 21 22 23 24 20 19 20
14 21 24 25 21 5 1 10 20 43 41 44 37 18 22 29 25 21 17 13 12 11 11 13 18 19 19 20 20 17 18 19
16 12 8 18 22 7 8 5 35 40 51 58 26 22 46 36 24 18 14 12 12 12 11 14 16 16 16 15 13 15 18 18
13 18 12 14 8 9 9 11 19 10 52 51 41 41 36 25 19 13 9 8 8 8 9 12 14 14 15 15 22 26 28 28
12 7 10 11 18 12 9 15 19 17 22 32 28 27 24 19 12 8 5 3 5 6 9 9 14 15 18 23 27 29 32 35
8 18 16 11 9 7 8 20 14 16 14 14 18 17 15 12 11 7 2 1 4 8 10 13 16 16 17 24 27 29 31 31
15 25 6 4 7 12 14 15 23 18 21 21 19 20 18 16 11 8 4 2 3 7 9 13 17 21 23 28 31 33 33 34
12 10 14 17 16 21 18 19 20 22 21 22 21 21 20 17 13 9 7 4 6 8 12 16 19 21 22 30 27 31 34 33
18 10 14 17 17 28 32 29 26 23 25 26 22 21 20 17 13 11 9 6 9 12 17 19 21 23 23 29 28 33 32 34
Wind_Direction_850mb
180 231 281 190 233 249 231 222 226 113 99 128 126 114 123 106 65 42 3 219 213 211 189 197 211 183 190 199 206 208 205 208
171 276 278 271 257 241 253 271 253 138 155 150 139 124 101 69 54 28 21 13 61 91 148 192 208 182 201 200 214 218 210 208
191 206 231 223 252 257 265 256 238 169 96 90 131 119 103 89 66 39 28 23 42 52 89 202 194 207 287 168 209 212 210 216
212 210 219 256 251 233 245 251 273 91 78 64 109 111 103 99 86 65 47 34 48 61 77 104 167 192 232 126 339 188 209 212
142 185 235 242 243 271 269 262 273 178 137 136 107 104 112 108 96 81 68 57 58 65 71 78 116 172 195 242 274 175 192 217
351 331 303 212 240 242 265 276 276 68 137 141 129 121 125 113 104 93 80 69 64 67 70 75 74 96 174 195 250 200 221 225
213 264 319 325 210 234 246 274 336 137 143 143 141 149 135 122 112 100 88 75 68 64 64 60 60 67 68 91 187 207 217 201
299 268 267 313 355 17 245 262 113 119 136 140 139 137 142 136 124 111 99 87 77 69 61 59 58 45 52 54 45 17 242 222
266 278 266 245 250 254 232 262 160 150 154 145 145 143 141 134 126 114 106 94 83 74 68 66 63 69 49 37 45 44 43 27
274 275 253 260 346 289 267 229 119 91 150 159 155 146 148 147 136 122 114 100 85 72 66 62 57 55 66 62 45 32 32 35
245 235 252 211 210 261 275 181 109 127 147 156 149 136 123 132 134 129 120 109 86 67 55 49 44 31 51 39 52 38 31 32
268 254 268 31 82 30 270 239 135 134 134 135 137 160 162 154 143 132 117 107 82 62 57 40 24 15 25 23 28 17 6 1
247 267 101 98 83 15 189 344 169 154 160 164 149 96 126 135 129 129 120 103 88 70 53 29 9 0 6 357 354 318 319 320
249 257 250 92 87 321 56 72 60 93 119 100 116 121 121 132 134 133 114 97 71 61 35 14 3 357 355 337 302 304 306 306
16 50 64 79 68 88 91 102 88 97 90 117 130 132 137 146 146 143 128 66 36 27 10 3 349 345 341 330 329 320 315 309
332 150 168 140 101 139 136 140 131 139 145 148 151 153 161 172 171 170 172 23 352 349 342 338 332 329 312 294 294 300 305 308
258 288 278 189 255 203 191 175 175 179 179 184 190 185 191 190 192 200 203 267 328 327 323 324 321 316 318 313 308 307 305 306
260 343 341 286 213 197 206 202 191 192 200 199 197 199 192 197 199 209 207 262 309 308 308 308 309 317 314 308 319 308 307 312
291 329 310 269 302 207 199 206 210 213 212 206 208 212 202 202 205 204 267 250 298 305 312 317 316 313 316 308 325 316 310 309